| time (UTC) | temp C | wind direction | speed KPH | gust KPH | rain 1hr cm | rain 24hr cm | rain mn cm | humidity % | barometer mb |
| 20260503004603 | 16 | 259 | 0.0 | 4.8 | 0.00 | 0.00 | 0.00 | 21 | 1012.9 |
| 20260503003054 | 16 | 319 | 0.0 | 4.8 | 0.00 | 0.00 | 0.00 | 23 | 1013.1 |
| 20260503001555 | 16 | 262 | 1.6 | 9.7 | 0.00 | 0.00 | 0.00 | 21 | 1013.1 |
| 20260502234603 | 17 | 233 | 1.6 | 6.4 | 0.00 | 0.00 | 0.00 | 20 | 1013.1 |
| 20260502233051 | 17 | 319 | 1.6 | 6.4 | 0.00 | 0.00 | 0.00 | 20 | 1013.3 |
| 20260502231551 | 17 | 200 | 3.2 | 9.7 | 0.00 | 0.00 | 0.00 | 18 | 1013.3 |
| 20260502230049 | 17 | 186 | 1.6 | 11.3 | 0.00 | 0.00 | 0.00 | 21 | 1013.5 |
| 20260502224547 | 17 | 300 | 1.6 | 14.5 | 0.00 | 0.00 | 0.00 | 21 | 1013.4 |
| 20260502223058 | 16 | 203 | 3.2 | 6.4 | 0.00 | 0.00 | 0.00 | 21 | 1013.7 |
| 20260502221546 | 17 | 248 | 0.0 | 8.0 | 0.00 | 0.00 | 0.00 | 22 | 1013.8 |
| 20260502220047 | 17 | 274 | 1.6 | 4.8 | 0.00 | 0.00 | 0.00 | 19 | 1014.0 |
| 20260502214605 | 17 | 323 | 1.6 | 9.7 | 0.00 | 0.00 | 0.00 | 21 | 1014.2 |
| 20260502213054 | 17 | 237 | 1.6 | 9.7 | 0.00 | 0.00 | 0.00 | 22 | 1014.4 |
| 20260502211538 | 17 | 229 | 3.2 | 11.3 | 0.00 | 0.00 | 0.00 | 23 | 1014.6 |
| 20260502210035 | 17 | 248 | 3.2 | 6.4 | 0.00 | 0.00 | 0.00 | 20 | 1014.9 |
| 20260502204539 | 17 | 236 | 3.2 | 11.3 | 0.00 | 0.00 | 0.00 | 21 | 1015.1 |
| 20260502203056 | 17 | 238 | 3.2 | 16.1 | 0.00 | 0.00 | 0.00 | 21 | 1015.2 |
| 20260502201530 | 17 | 175 | 1.6 | 8.0 | 0.00 | 0.00 | 0.00 | 24 | 1015.4 |
| 20260502200028 | 16 | 242 | 4.8 | 9.7 | 0.00 | 0.00 | 0.00 | 20 | 1015.5 |
| 20260502194529 | 17 | 240 | 1.6 | 8.0 | 0.00 | 0.00 | 0.00 | 21 | 1015.7 |
| 20260502193026 | 16 | 243 | 1.6 | 4.8 | 0.00 | 0.00 | 0.00 | 21 | 1015.7 |
| 20260502191522 | 16 | 246 | 1.6 | 9.7 | 0.00 | 0.00 | 0.00 | 22 | 1015.9 |
| 20260502190021 | 15 | 323 | 3.2 | 8.0 | 0.00 | 0.00 | 0.00 | 25 | 1016.2 |
| 20260502184517 | 15 | 10 | 1.6 | 9.7 | 0.00 | 0.00 | 0.00 | 26 | 1016.4 |
| 20260502183013 | 15 | 319 | 3.2 | 11.3 | 0.00 | 0.00 | 0.00 | 28 | 1016.6 |
| 20260502181508 | 13 | 288 | 1.6 | 8.0 | 0.00 | 0.00 | 0.00 | 35 | 1016.7 |
| 20260502180105 | 12 | 334 | 3.2 | 8.0 | 0.00 | 0.00 | 0.00 | 37 | 1016.9 |
| 20260502163052 | 6 | 325 | 1.6 | 6.4 | 0.00 | 0.00 | 0.00 | 57 | 1018.1 |
| 20260502161554 | 5 | 284 | 0.0 | 3.2 | 0.00 | 0.00 | 0.00 | 59 | 1018.2 |
| 20260502151524 | 1 | 148 | 0.0 | 1.6 | 0.00 | 0.00 | 0.00 | 76 | 1018.9 |
| 20260502123021 | -3 | 141 | 0.0 | 1.6 | 0.00 | 0.00 | 0.00 | 87 | 1018.9 |
| 20260502121518 | -3 | 142 | 0.0 | 0.0 | 0.00 | 0.00 | 0.00 | 88 | 1018.9 |
| 20260502114513 | -3 | 360 | 0.0 | 0.0 | 0.00 | 0.00 | 0.00 | 86 | 1019.0 |
| 20260502113011 | -3 | 360 | 0.0 | 0.0 | 0.00 | 0.00 | 0.00 | 86 | 1019.0 |
| 20260502111510 | -3 | 360 | 0.0 | 0.0 | 0.00 | 0.00 | 0.00 | 86 | 1019.0 |
| 20260502110012 | -2 | 360 | 0.0 | 0.0 | 0.00 | 0.00 | 0.00 | 86 | 1019.0 |
| 20260502104515 | -2 | 360 | 0.0 | 0.0 | 0.00 | 0.00 | 0.00 | 84 | 1019.1 |
| 20260502103006 | -2 | 360 | 0.0 | 1.6 | 0.00 | 0.00 | 0.00 | 82 | 1019.0 |
| 20260502101506 | -2 | 360 | 0.0 | 1.6 | 0.00 | 0.00 | 0.00 | 84 | 1019.0 |
| 20260502071536 | 1 | 128 | 0.0 | 1.6 | 0.00 | 0.00 | 0.00 | 65 | 1019.4 |
| 20260502070039 | 2 | 126 | 0.0 | 1.6 | 0.00 | 0.00 | 0.00 | 64 | 1019.4 |
| 20260502064545 | 1 | 123 | 0.0 | 1.6 | 0.00 | 0.00 | 0.00 | 65 | 1019.4 |
| 20260502063034 | 2 | 124 | 0.0 | 1.6 | 0.00 | 0.00 | 0.00 | 62 | 1019.3 |
| 20260502061530 | 2 | 360 | 0.0 | 1.6 | 0.00 | 0.00 | 0.00 | 61 | 1019.3 |
| 20260502060031 | 2 | 360 | 0.0 | 1.6 | 0.00 | 0.00 | 0.00 | 61 | 1019.2 |
| 20260502054534 | 2 | 360 | 0.0 | 0.0 | 0.00 | 0.00 | 0.00 | 59 | 1019.2 |
| 20260502053031 | 3 | 360 | 0.0 | 4.8 | 0.00 | 0.00 | 0.00 | 57 | 1019.2 |
| 20260502051534 | 4 | 360 | 0.0 | 0.0 | 0.00 | 0.00 | 0.00 | 54 | 1019.1 |
| 20260502050040 | 4 | 360 | 0.0 | 1.6 | 0.00 | 0.00 | 0.00 | 53 | 1019.1 |
| 20260502044526 | 5 | 76 | 0.0 | 1.6 | 0.00 | 0.00 | 0.00 | 52 | 1019.1 |
| 20260502043030 | 6 | 90 | 0.0 | 1.6 | 0.00 | 0.00 | 0.00 | 49 | 1019.0 |
| 20260502041526 | 6 | 360 | 0.0 | 1.6 | 0.00 | 0.00 | 0.00 | 44 | 1018.9 |
| 20260502040025 | 6 | 89 | 0.0 | 3.2 | 0.00 | 0.00 | 0.00 | 45 | 1018.7 |
| 20260502034525 | 7 | 59 | 0.0 | 3.2 | 0.00 | 0.00 | 0.00 | 44 | 1018.3 |
| 20260502033027 | 7 | 53 | 0.0 | 1.6 | 0.00 | 0.00 | 0.00 | 42 | 1018.1 |
| 20260502031524 | 7 | 351 | 0.0 | 3.2 | 0.00 | 0.00 | 0.00 | 39 | 1017.8 |
| 20260502030024 | 8 | 46 | 0.0 | 3.2 | 0.00 | 0.00 | 0.00 | 39 | 1017.6 |
| 20260502024528 | 9 | 360 | 0.0 | 3.2 | 0.00 | 0.00 | 0.00 | 40 | 1017.5 |
| 20260502023023 | 10 | 62 | 0.0 | 3.2 | 0.00 | 0.00 | 0.00 | 35 | 1017.5 |
| 20260502021525 | 12 | 294 | 0.0 | 1.6 | 0.00 | 0.00 | 0.00 | 30 | 1017.6 |
| 20260502020022 | 14 | 292 | 0.0 | 3.2 | 0.00 | 0.00 | 0.00 | 27 | 1017.5 |
| 20260502014521 | 15 | 319 | 0.0 | 4.8 | 0.00 | 0.00 | 0.00 | 24 | 1017.5 |
| 20260502013020 | 15 | 221 | 0.0 | 3.2 | 0.00 | 0.00 | 0.00 | 23 | 1017.6 |
| 20260502011519 | 15 | 218 | 0.0 | 4.8 | 0.00 | 0.00 | 0.00 | 23 | 1017.7 |
| 20260502010025 | 15 | 235 | 1.6 | 4.8 | 0.00 | 0.00 | 0.00 | 23 | 1017.8 |